Content
SEND FEEDBACK

Daily
Averages
Monthly
Summary
United States of America

PONCA CITY, OKLAHOMA


Home > North America > United States > Oklahoma
Elevation: 999 feet     Latitude: 36 44N     Longitude: 097 06W

WEATHER
 
SELECT A DAY
Number of Records: 79,167;   Date Range: 1/1/95 - 9/30/14
 
SHARE

PRINT THIS DATA

[ ← Previous Day ]
WEATHER ALMANAC - JANUARY 31, 2013
[ Next Day → ]
[ °C ]   °F
Weather ElementAverageHighLow
Temperature29.5 °F44.1 °F (12:53 pm)19.9 °F (11:53 pm)
Dewpoint17.7 °F27 °F (12:53 pm)7 °F (8:53 pm)
Humidity62.3 %84 % (5:53 am)50 % (8:53 pm)
Barometer30.23 in30.49 in (8:53 pm)30.01 in (3:53 am)
Wind Speed9.1 mph24.2 mph (2:53 pm)
Wind Gust28.8 mph (2:53 pm)
Weather ElementAverage
Visibility10 mi
Wind DirectionENE (74.1 °)

Weather ElementTotal
Precipitation---
Heating Degree Days33 (Base 65)
Averaged from 22 records on January 31, 2013
WEATHER CONDITIONS BREAKOUT
WIND DIRECTION BREAKOUT
WEATHER BY HOUR - JANUARY 31, 2013
[ °C ]   °F
Local TimeTemperatureDewpointHumidityBarometerVisibilityWind DirectionWind SpeedGust SpeedPrecipitationEventsConditions
1:53 AM28.9 °F21.0 °F72 %30.03 in10.0 miSouth (180°)4.6 mphClear
2:53 AM28.0 °F21.0 °F75 %30.03 in10.0 miSSW (210°)4.6 mphClear
3:53 AM28.9 °F21.0 °F72 %30.01 in10.0 miSW (220°)3.5 mphClear
4:53 AM28.0 °F21.0 °F75 %30.01 in10.0 miCalmClear
5:53 AM24.1 °F19.9 °F84 %30.04 in10.0 miCalmClear
6:53 AM26.1 °F19.9 °F78 %30.04 in10.0 miCalmClear
7:53 AM26.1 °F19.0 °F75 %30.08 in10.0 miCalmClear
8:53 AM30.9 °F21.0 °F67 %30.09 in10.0 miCalmClear
9:53 AM37.0 °F25.0 °F62 %30.15 in10.0 miVariable4.6 mphClear
10:53 AM41.0 °F24.1 °F51 %30.18 in10.0 miNorth (360°)8.1 mphClear
11:53 AM42.1 °F25.0 °F51 %30.18 in10.0 miNNE (20°)16.1 mphClear
12:53 PM44.1 °F27.0 °F51 %30.18 in10.0 miNorth (10°)20.7 mphClear
2:53 PM35.1 °F23.0 °F61 %30.26 in10.0 miNNE (20°)24.2 mph28.8 mphPartly Cloudy
3:53 PM34.0 °F18.0 °F52 %30.30 in10.0 miNorth (360°)20.7 mphClear
4:53 PM30.0 °F14.0 °F51 %30.35 in10.0 miNNE (20°)19.6 mphClear
5:53 PM28.0 °F14.0 °F56 %30.38 in10.0 miNNE (30°)10.4 mphClear
6:53 PM27.0 °F12.0 °F53 %30.43 in10.0 miNorth (10°)10.4 mphClear
7:53 PM24.1 °F10.0 °F55 %30.47 in10.0 miNorth (10°)13.8 mphClear
8:53 PM23.0 °F7.0 °F50 %30.49 in10.0 miNNE (30°)13.8 mphScattered Clouds
9:53 PM21.0 °F9.0 °F60 %30.49 in10.0 miNE (50°)6.9 mphClear
10:53 PM21.0 °F9.0 °F60 %30.48 in10.0 miNE (40°)8.1 mphClear
11:53 PM19.9 °F8.1 °F60 %30.46 in10.0 miENE (60°)9.2 mphClear
Hourly data recorded from KPNC, located miles away from Ponca City, Oklahoma







STORIES FROM OUR PARTNERS